Aérodrome :
LOGIN :

S'inscrire | Disclaimer

   EN    FR    IT 

 










Légende :    VFR   VFR Marginal   IFR   IFR Intensif   IFR Très Intensif
Visi : 
Plafond : 
>= 8 km
>= 3000ft
5 à 8 km
1000 à 3000 ft
1500m à 5 km
500 à 1000 ft
800 à 1500m
200 à 500 ft
< 800m
< 200 ft
Symboles :   Orages  Brouillard  Fortes neiges  Fortes précipitations  Vent > 20 kt
SIGMETs :   Divers  Orages  Givrage  Turbulence  Onde Orograph.  Cendres Volcan.







- Altitude de l'aérodrome : 16 ft
- Code IATA : SDR


LEXJ - Santander Cantabria

DERNIER METAR :
  • 180700Z 22007KT 9999 FEW035 07/04 Q1025

METARs EXPIRÉS :
  • 180630Z 22007KT CAVOK 07/04 Q1024
  • 180600Z 26003KT 220V290 CAVOK 06/04 Q1025
  • 180530Z 22007KT CAVOK 08/04 Q1025
  • 180500Z 22006KT 8000 NSC 08/04 Q1025
  • 180430Z 22009KT 8000 NSC 08/04 Q1025

TAF TAF LEXJ
Valide du 18 à 03h jusqu'au 19 à 03h UTC


180200Z 1803/1903 22008KT 9999 SCT030 TX14/1814Z TN06/1806Z
TEMPO 1900/1903 28010KT 3000 RADZ BKN012
Pas de NOTAMs connus pour ce terrain.



MET'MAP, la Météo Aéronautique d'un coup d'oeil ! - Copyright ORBIFLY Décembre 2007 - Disclaimer

ORBIFLY MET'MAP TEAM :

Programmation & Développement : Alexandra Zaïnal
Conception & Développement : Baudouin d'Aumeries
Co-Programmation & Développement : Marc-Olivier Méhu
Soutien technique & logistique : Manuel Goepfert

Contact : metmap@orbifly.com




SOURCES & CREDITS :

   NOAA